Weather History for Chicago Midway, IL

Change the Weather History Date:

Monday, May 7, 2012

  Actual Average Record
Temperature  
Mean Temperature 58 °F 58 °F  
Max Temperature 61 °F 67 °F 89 °F (1936)
Min Temperature 54 °F 49 °F 32 °F (1974)
Degree Days  
Heating Degree Days 7 8  
Month to date heating degree days 25 61  
Since 1 July heating degree days 5832  
Cooling Degree Days 0 1  
Month to date cooling degree days 17 7  
Year to date cooling degree days 71 20  
Growing Degree Days 8 (Base 50)    
Moisture  
Dew Point 56 °F    
Average Humidity 92    
Maximum Humidity 100    
Minimum Humidity 82    
Precipitation  
Precipitation 0.04 in 0.12 in 2.01 in (1998)
Month to date precipitation 1.06 0.86  
Year to date precipitation 7.82 11.22  
Sea Level Pressure  
Sea Level Pressure 29.86 in    
Wind  
Wind Speed 5 mph (NNE)    
Max Wind Speed 21 mph    
Max Gust Speed 29 mph    
Visibility 3 miles    
Events Fog , Rain , Thunderstorm    
T = Trace of Precipitation, MM = Missing Value Source: NWS Daily Summary

Daily Weather History Graph

Daily Weather History Graph

Search for Another Location

Airport:

Trip Planner

Search our weather history database for the weather conditions in past years. The results will help you decide how hot, cold, wet, or windy it might be!

Date:

Astronomy

May. 07, 2012 Rise Set
Actual Time 5:39 AM CDT 7:56 PM CDT
Civil Twilight 5:08 AM CDT 8:27 PM CDT
Nautical Twilight 4:30 AM CDT 9:05 PM CDT
Astronomical Twilight 3:47 AM CDT 9:48 PM CDT
Moon 10:09 PM CDT (5/7) 6:43 AM CDT (5/7)
Length of Visible Light 15h 19m
Length of Day
14h 17m
Waning Gibbous, 96% of the Moon is Illuminated
May 7
Waning Gibbous
May 12
Last Quarter
May 20
New
May 28
First Quarter
Jun 4
Full

Hourly Weather History & Observations

Time (CDT) Temp. Dew Point Humidity Pressure Visibility Wind Dir Wind Speed Gust Speed Precip Events Conditions
12:15 AM 55.4 °F 53.6 °F 94% 29.88 in 10.0 mi NW 6.9 mph - 0.00 in Rain , Thunderstorm Light Thunderstorms and Rain
12:51 AM 55.0 °F 54.0 °F 96% 29.91 in 6.0 mi SW 4.6 mph - 0.05 in Rain , Thunderstorm Light Thunderstorms and Rain
1:51 AM 55.9 °F 55.0 °F 97% 29.87 in 3.0 mi NNW 5.8 mph - 0.09 in Rain , Thunderstorm Thunderstorms and Rain
1:58 AM 55.4 °F 55.4 °F 100% 29.87 in 2.0 mi NW 6.9 mph - 0.03 in Rain , Thunderstorm Thunderstorms and Rain
2:44 AM 57.2 °F 55.4 °F 94% 29.86 in 1.5 mi ESE 11.5 mph - 0.15 in Rain , Thunderstorm Thunderstorms and Rain
2:51 AM 57.0 °F 55.9 °F 96% 29.85 in 1.5 mi SE 11.5 mph - 0.18 in Rain , Thunderstorm Thunderstorms and Rain
3:39 AM 57.2 °F 57.2 °F 100% 29.85 in 1.0 mi NNW 3.5 mph - N/A Rain Rain
3:51 AM 57.9 °F 57.0 °F 97% 29.83 in 1.2 mi ENE 10.4 mph - N/A Rain Rain
4:18 AM 57.2 °F 57.2 °F 100% 29.82 in 3.0 mi NNE 9.2 mph - 0.05 in Rain Light Rain
4:51 AM 59.0 °F 57.9 °F 96% 29.80 in 4.0 mi SE 11.5 mph - 0.07 in Rain Light Rain
5:33 AM 59.0 °F 57.2 °F 94% 29.79 in 2.0 mi WSW 3.5 mph - 0.00 in   Overcast
5:51 AM 59.0 °F 57.9 °F 96% 29.81 in 1.5 mi WNW 12.7 mph - 0.00 in   Overcast
5:57 AM 59.0 °F 59.0 °F 100% 29.83 in 1.5 mi WNW 12.7 mph - N/A   Overcast
6:22 AM 60.8 °F 59.0 °F 94% 29.85 in 2.5 mi WNW 12.7 mph - 0.01 in   Overcast
6:30 AM 60.8 °F 59.0 °F 94% 29.86 in 2.5 mi West 11.5 mph - 0.01 in   Overcast
6:51 AM 60.1 °F 59.0 °F 96% 29.87 in 2.5 mi WNW 11.5 mph 18.4 mph 0.01 in   Overcast
7:34 AM 60.8 °F 59.0 °F 94% 29.88 in 3.0 mi NW 4.6 mph - N/A   Overcast
7:51 AM 60.8 °F 57.2 °F 88% 29.88 in 3.0 mi NW 5.8 mph - N/A   Overcast
8:10 AM 60.8 °F 57.2 °F 88% 29.88 in 3.0 mi NNW 10.4 mph - N/A   Overcast
8:51 AM 60.1 °F 55.9 °F 86% 29.87 in 4.0 mi North 9.2 mph - N/A   Overcast
9:38 AM 60.8 °F 55.4 °F 82% 29.87 in 6.0 mi NNE 8.1 mph - 0.00 in Rain Light Rain
9:51 AM 60.8 °F 55.4 °F 82% 29.88 in 6.0 mi NNW 6.9 mph - N/A Rain Light Rain
10:14 AM 59.0 °F 55.4 °F 88% 29.89 in 5.0 mi NW 3.5 mph - 0.01 in Rain Light Rain
10:51 AM 60.1 °F 57.0 °F 90% 29.88 in 3.0 mi North 4.6 mph - 0.03 in Rain Light Rain
11:08 AM 60.8 °F 57.2 °F 88% 29.88 in 2.5 mi North 5.8 mph - 0.02 in Rain Light Rain
11:27 AM 59.0 °F 55.4 °F 88% 29.88 in 2.5 mi NE 6.9 mph - 0.03 in Rain Light Rain
11:38 AM 59.0 °F 55.4 °F 88% 29.88 in 2.5 mi ENE 5.8 mph - 0.03 in Rain Light Rain
11:51 AM 59.0 °F 55.9 °F 90% 29.88 in 2.5 mi ENE 3.5 mph - 0.03 in Rain Light Rain
12:42 PM 60.8 °F 55.4 °F 82% 29.89 in 3.0 mi NNE 3.5 mph - 0.00 in Rain Light Rain
12:51 PM 60.1 °F 57.0 °F 90% 29.88 in 3.0 mi Calm Calm - 0.00 in Rain Light Rain
1:39 PM 60.8 °F 57.2 °F 88% 29.88 in 2.0 mi Calm Calm - 0.02 in Rain Light Rain
1:51 PM 59.0 °F 57.0 °F 93% 29.88 in 2.5 mi East 5.8 mph - 0.03 in Rain Light Rain
2:51 PM 57.9 °F 55.9 °F 93% 29.87 in 2.5 mi ESE 8.1 mph - 0.01 in Rain Light Rain
3:51 PM 57.9 °F 55.0 °F 90% 29.86 in 2.5 mi East 3.5 mph 28.8 mph 0.00 in Rain Light Rain
4:01 PM 57.2 °F 55.4 °F 94% 29.87 in 3.0 mi Calm Calm - N/A   Overcast
4:51 PM 59.0 °F 55.0 °F 87% 29.86 in 5.0 mi Calm Calm - N/A   Overcast
5:16 PM 59.0 °F 55.4 °F 88% 29.86 in 2.5 mi Calm Calm - N/A   Overcast
5:31 PM 59.0 °F 55.4 °F 88% 29.86 in 3.0 mi Calm Calm - N/A   Overcast
5:51 PM 59.0 °F 55.9 °F 90% 29.86 in 5.0 mi Calm Calm - N/A   Overcast
6:51 PM 60.8 °F 55.4 °F 82% 29.85 in 3.0 mi Calm Calm - N/A   Overcast
7:04 PM 60.8 °F 55.4 °F 82% 29.85 in 3.0 mi Calm Calm - N/A   Overcast
7:51 PM 59.0 °F 55.9 °F 90% 29.85 in 3.0 mi SE 4.6 mph - N/A   Overcast
8:51 PM 57.9 °F 55.9 °F 93% 29.86 in 3.0 mi ESE 4.6 mph - N/A   Overcast
9:16 PM 57.2 °F 55.4 °F 94% 29.87 in 2.5 mi East 5.8 mph - N/A   Overcast
9:31 PM 55.4 °F 53.6 °F 94% 29.88 in 2.5 mi East 4.6 mph - N/A   Overcast
9:51 PM 55.0 °F 54.0 °F 96% 29.87 in 2.5 mi East 3.5 mph - N/A   Overcast
9:57 PM 55.4 °F 53.6 °F 94% 29.88 in 1.0 mi ESE 3.5 mph - N/A   Overcast
10:18 PM 55.4 °F 53.6 °F 94% 29.88 in 0.8 mi SE 4.6 mph - N/A   Overcast
10:22 PM 55.4 °F 53.6 °F 94% 29.88 in 0.2 mi SE 3.5 mph - N/A Fog Fog
10:29 PM 55.4 °F 53.6 °F 94% 29.88 in 0.1 mi Calm Calm - N/A Fog Fog
10:46 PM 55.4 °F 53.6 °F 94% 29.88 in 0.5 mi Calm Calm - N/A Fog Fog
10:51 PM 55.0 °F 55.0 °F 100% 29.88 in 0.5 mi Calm Calm - N/A Fog Fog
11:12 PM 55.4 °F 53.6 °F 94% 29.87 in 0.2 mi SSE 4.6 mph - N/A Fog Fog
11:51 PM 55.0 °F 54.0 °F 96% 29.86 in 0.1 mi Calm Calm - N/A Fog Fog